Time,TemperatureF,DewpointF,PressureIn,WindDirection,WindDirectionDegrees,WindSpeedMPH,WindSpeedGustMPH,Humidity,HourlyPrecipIn,Conditions,Clouds,dailyrainin,SoftwareType,DateUTC
2013-03-02 00:04:00,67.0,59.9,30.22,SE,136,4.0,12.0,78,0.00,,,0.00,Wunderground v.1.15,2013-03-02 10:04:00,
2013-03-02 00:10:00,67.0,59.9,30.22,SE,124,5.0,12.0,78,0.00,,,0.00,Wunderground v.1.15,2013-03-02 10:10:00,
2013-03-02 00:15:00,67.1,60.0,30.22,East,95,6.0,12.0,78,0.00,,,0.00,Wunderground v.1.15,2013-03-02 10:15:00,
2013-03-02 00:21:00,67.1,60.0,30.22,East,94,5.0,12.0,78,0.00,,,0.00,Wunderground v.1.15,2013-03-02 10:21:00,
2013-03-02 00:26:00,67.2,60.1,30.22,SSE,164,4.0,12.0,78,0.00,,,0.00,Wunderground v.1.15,2013-03-02 10:26:00,
2013-03-02 00:32:00,67.2,60.1,30.22,East,95,4.0,12.0,78,0.00,,,0.00,Wunderground v.1.15,2013-03-02 10:32:00,
2013-03-02 00:38:00,67.2,60.1,30.22,ESE,115,4.0,12.0,78,0.00,,,0.00,Wunderground v.1.15,2013-03-02 10:38:00,
2013-03-02 00:44:00,67.3,60.2,30.22,SSE,156,4.0,11.0,78,0.00,,,0.00,Wunderground v.1.15,2013-03-02 10:44:00,
2013-03-02 00:50:00,67.4,60.3,30.22,SSE,151,6.0,16.0,78,0.00,,,0.00,Wunderground v.1.15,2013-03-02 10:50:00,
2013-03-02 00:55:00,67.6,60.9,30.21,East,98,7.0,16.0,79,0.00,,,0.00,Wunderground v.1.15,2013-03-02 10:55:00,
2013-03-02 01:01:00,67.6,60.9,30.22,ENE,67,6.0,12.0,79,0.00,,,0.00,Wunderground v.1.15,2013-03-02 11:01:00,
2013-03-02 01:06:00,67.7,61.0,30.21,SE,127,5.0,18.0,79,0.00,,,0.00,Wunderground v.1.15,2013-03-02 11:06:00,
2013-03-02 01:11:00,67.6,60.9,30.21,ESE,111,4.0,18.0,79,0.00,,,0.00,Wunderground v.1.15,2013-03-02 11:11:00,
2013-03-02 01:16:00,67.5,61.1,30.21,ESE,108,3.0,18.0,80,0.00,,,0.00,Wunderground v.1.15,2013-03-02 11:16:00,
2013-03-02 01:22:00,67.4,61.4,30.20,SE,126,4.0,11.0,81,0.00,,,0.00,Wunderground v.1.15,2013-03-02 11:22:00,
2013-03-02 01:27:00,67.2,61.2,30.20,East,86,5.0,11.0,81,0.00,,,0.00,Wunderground v.1.15,2013-03-02 11:27:00,
2013-03-02 01:33:00,67.2,61.2,30.20,SSE,148,5.0,15.0,81,0.00,,,0.00,Wunderground v.1.15,2013-03-02 11:33:00,
2013-03-02 01:38:00,67.2,61.2,30.20,East,86,5.0,15.0,81,0.00,,,0.00,Wunderground v.1.15,2013-03-02 11:38:00,
2013-03-02 01:44:00,67.2,61.2,30.20,NE,54,4.0,15.0,81,0.00,,,0.00,Wunderground v.1.15,2013-03-02 11:44:00,
2013-03-02 01:50:00,67.4,61.4,30.20,ESE,123,4.0,4.0,81,0.00,,,0.00,Wunderground v.1.15,2013-03-02 11:50:00,
2013-03-02 01:55:00,67.5,61.1,30.20,East,99,5.0,14.0,80,0.00,,,0.00,Wunderground v.1.15,2013-03-02 11:55:00,
2013-03-02 02:01:00,67.6,60.9,30.19,East,87,6.0,10.0,79,0.00,,,0.00,Wunderground v.1.15,2013-03-02 12:01:00,
2013-03-02 02:07:00,67.7,61.0,30.19,East,79,7.0,16.0,79,0.00,,,0.00,Wunderground v.1.15,2013-03-02 12:07:00,
2013-03-02 02:12:00,67.8,61.0,30.18,SE,136,6.0,16.0,79,0.00,,,0.00,Wunderground v.1.15,2013-03-02 12:12:00,
2013-03-02 02:18:00,67.8,61.0,30.18,East,99,5.0,19.0,79,0.00,,,0.00,Wunderground v.1.15,2013-03-02 12:18:00,
2013-03-02 02:24:00,67.7,61.0,30.18,ENE,76,5.0,19.0,79,0.00,,,0.00,Wunderground v.1.15,2013-03-02 12:24:00,
2013-03-02 02:29:00,67.8,61.0,30.18,SSE,157,5.0,19.0,79,0.00,,,0.00,Wunderground v.1.15,2013-03-02 12:29:00,
2013-03-02 02:35:00,67.7,60.6,30.18,SSE,149,6.0,23.0,78,0.00,,,0.00,Wunderground v.1.15,2013-03-02 12:35:00,
2013-03-02 02:41:00,67.7,60.6,30.18,ESE,119,6.0,23.0,78,0.00,,,0.00,Wunderground v.1.15,2013-03-02 12:41:00,
2013-03-02 02:46:00,67.6,60.5,30.18,SSE,147,5.0,23.0,78,0.00,,,0.00,Wunderground v.1.15,2013-03-02 12:46:00,
2013-03-02 02:52:00,67.5,60.4,30.18,East,93,4.0,14.0,78,0.00,,,0.00,Wunderground v.1.15,2013-03-02 12:52:00,
2013-03-02 02:57:00,67.5,60.4,30.17,SE,128,4.0,14.0,78,0.00,,,0.00,Wunderground v.1.15,2013-03-02 12:57:00,
2013-03-02 03:03:00,67.4,60.3,30.17,ESE,111,5.0,12.0,78,0.00,,,0.00,Wunderground v.1.15,2013-03-02 13:03:00,
2013-03-02 03:09:00,67.4,60.3,30.17,ESE,120,5.0,14.0,78,0.00,,,0.00,Wunderground v.1.15,2013-03-02 13:09:00,
2013-03-02 03:14:00,67.5,59.7,30.17,ESE,119,5.0,11.0,76,0.00,,,0.00,Wunderground v.1.15,2013-03-02 13:14:00,
2013-03-02 03:20:00,67.6,59.8,30.17,ESE,107,5.0,15.0,76,0.00,,,0.00,Wunderground v.1.15,2013-03-02 13:20:00,
2013-03-02 03:26:00,67.7,59.9,30.16,ESE,108,5.0,15.0,76,0.00,,,0.00,Wunderground v.1.15,2013-03-02 13:26:00,
2013-03-02 03:31:00,67.8,60.3,30.16,ESE,118,6.0,20.0,77,0.00,,,0.00,Wunderground v.1.15,2013-03-02 13:31:00,
2013-03-02 03:37:00,67.7,60.2,30.16,ENE,74,6.0,20.0,77,0.00,,,0.00,Wunderground v.1.15,2013-03-02 13:37:00,
2013-03-02 03:43:00,67.7,59.9,30.16,ESE,104,5.0,20.0,76,0.00,,,0.00,Wunderground v.1.15,2013-03-02 13:43:00,
2013-03-02 03:48:00,67.7,59.9,30.16,ESE,109,6.0,20.0,76,0.00,,,0.00,Wunderground v.1.15,2013-03-02 13:48:00,
2013-03-02 03:54:00,67.8,60.0,30.16,SE,138,5.0,18.0,76,0.00,,,0.00,Wunderground v.1.15,2013-03-02 13:54:00,
2013-03-02 03:59:00,67.7,60.2,30.16,East,82,5.0,18.0,77,0.00,,,0.00,Wunderground v.1.15,2013-03-02 13:59:00,
2013-03-02 04:04:00,67.7,60.2,30.15,SE,146,5.0,18.0,77,0.00,,,0.00,Wunderground v.1.15,2013-03-02 14:04:00,
2013-03-02 04:10:00,67.6,60.1,30.15,SE,131,6.0,18.0,77,0.00,,,0.00,Wunderground v.1.15,2013-03-02 14:10:00,
2013-03-02 04:16:00,67.6,60.5,30.15,SSE,148,5.0,18.0,78,0.00,,,0.00,Wunderground v.1.15,2013-03-02 14:16:00,
2013-03-02 04:21:00,67.4,59.9,30.15,SE,134,6.0,20.0,77,0.00,,,0.00,Wunderground v.1.15,2013-03-02 14:21:00,
2013-03-02 04:27:00,67.4,59.6,30.15,ESE,113,7.0,20.0,76,0.00,,,0.00,Wunderground v.1.15,2013-03-02 14:27:00,
2013-03-02 04:33:00,67.2,59.0,30.16,ENE,77,6.0,19.0,75,0.00,,,0.00,Wunderground v.1.15,2013-03-02 14:33:00,
2013-03-02 04:38:00,67.1,58.5,30.16,SE,143,7.0,19.0,74,0.00,,,0.00,Wunderground v.1.15,2013-03-02 14:38:00,
2013-03-02 04:44:00,66.9,58.3,30.16,SSE,157,8.0,19.0,74,0.00,,,0.00,Wunderground v.1.15,2013-03-02 14:44:00,
2013-03-02 04:49:00,66.7,58.1,30.16,SSE,151,6.0,19.0,74,0.00,,,0.00,Wunderground v.1.15,2013-03-02 14:49:00,
2013-03-02 04:55:00,66.7,58.1,30.16,SSE,157,6.0,16.0,74,0.00,,,0.00,Wunderground v.1.15,2013-03-02 14:55:00,
2013-03-02 05:01:00,66.7,58.5,30.16,SSE,148,6.0,16.0,75,0.00,,,0.00,Wunderground v.1.15,2013-03-02 15:01:00,
2013-03-02 05:06:00,66.9,58.3,30.16,East,97,6.0,16.0,74,0.00,,,0.00,Wunderground v.1.15,2013-03-02 15:06:00,
2013-03-02 05:11:00,67.0,58.4,30.16,SE,132,6.0,14.0,74,0.00,,,0.00,Wunderground v.1.15,2013-03-02 15:11:00,
2013-03-02 05:17:00,67.1,59.3,30.17,SE,145,6.0,14.0,76,0.00,,,0.00,Wunderground v.1.15,2013-03-02 15:17:00,
2013-03-02 05:22:00,67.2,59.7,30.17,East,100,6.0,14.0,77,0.00,,,0.00,Wunderground v.1.15,2013-03-02 15:22:00,
2013-03-02 05:28:00,67.2,60.5,30.17,SSE,148,5.0,14.0,79,0.00,,,0.00,Wunderground v.1.15,2013-03-02 15:28:00,
2013-03-02 05:33:00,67.2,60.8,30.17,ESE,110,5.0,14.0,80,0.00,,,0.00,Wunderground v.1.15,2013-03-02 15:33:00,
2013-03-02 05:39:00,67.1,61.1,30.17,ESE,117,6.0,14.0,81,0.00,,,0.00,Wunderground v.1.15,2013-03-02 15:39:00,
2013-03-02 05:45:00,66.9,61.2,30.17,SE,126,6.0,14.0,82,0.00,,,0.00,Wunderground v.1.15,2013-03-02 15:45:00,
2013-03-02 05:50:00,66.8,61.5,30.17,East,82,6.0,15.0,83,0.00,,,0.00,Wunderground v.1.15,2013-03-02 15:50:00,
2013-03-02 05:56:00,66.5,61.2,30.17,SE,127,8.0,15.0,83,0.00,,,0.00,Wunderground v.1.15,2013-03-02 15:56:00,
2013-03-02 06:02:00,66.2,60.9,30.17,East,88,8.0,20.0,83,0.00,,,0.00,Wunderground v.1.15,2013-03-02 16:02:00,
2013-03-02 06:08:00,66.2,60.9,30.17,SSE,153,7.0,20.0,83,0.00,,,0.00,Wunderground v.1.15,2013-03-02 16:08:00,
2013-03-02 06:13:00,66.1,60.4,30.18,SSE,148,7.0,20.0,82,0.00,,,0.00,Wunderground v.1.15,2013-03-02 16:13:00,
2013-03-02 06:19:00,66.1,60.1,30.18,SSE,148,8.0,20.0,81,0.00,,,0.00,Wunderground v.1.15,2013-03-02 16:19:00,
2013-03-02 06:24:00,66.1,60.1,30.18,SE,130,7.0,19.0,81,0.00,,,0.00,Wunderground v.1.15,2013-03-02 16:24:00,
2013-03-02 06:30:00,66.0,59.7,30.18,SE,141,7.0,19.0,80,0.00,,,0.00,Wunderground v.1.15,2013-03-02 16:30:00,
2013-03-02 06:36:00,65.8,59.1,30.18,ESE,116,7.0,19.0,79,0.00,,,0.00,Wunderground v.1.15,2013-03-02 16:36:00,
2013-03-02 06:41:00,65.7,59.0,30.18,SE,139,7.0,9.0,79,0.00,,,0.00,Wunderground v.1.15,2013-03-02 16:41:00,
2013-03-02 06:47:00,65.6,58.9,30.18,SE,144,6.0,15.0,79,0.00,,,0.00,Wunderground v.1.15,2013-03-02 16:47:00,
2013-03-02 06:53:00,65.6,58.6,30.18,South,171,7.0,15.0,78,0.00,,,0.00,Wunderground v.1.15,2013-03-02 16:53:00,
2013-03-02 06:58:00,65.6,58.6,30.18,ESE,121,7.0,15.0,78,0.00,,,0.00,Wunderground v.1.15,2013-03-02 16:58:00,
2013-03-02 07:03:00,65.6,58.2,30.18,SSE,150,7.0,15.0,77,0.00,,,0.00,Wunderground v.1.15,2013-03-02 17:03:00,
2013-03-02 07:09:00,65.7,57.9,30.19,SSE,151,7.0,15.0,76,0.00,,,0.00,Wunderground v.1.15,2013-03-02 17:09:00,
2013-03-02 07:15:00,65.6,57.8,30.19,SE,135,6.0,15.0,76,0.00,,,0.00,Wunderground v.1.15,2013-03-02 17:15:00,
2013-03-02 07:20:00,65.7,57.6,30.20,ESE,107,7.0,7.0,75,0.00,,,0.00,Wunderground v.1.15,2013-03-02 17:20:00,
2013-03-02 07:26:00,65.9,57.7,30.20,SE,142,7.0,13.0,75,0.00,,,0.00,Wunderground v.1.15,2013-03-02 17:26:00,
2013-03-02 07:31:00,66.1,57.6,30.20,South,176,7.0,13.0,74,0.00,,,0.00,Wunderground v.1.15,2013-03-02 17:31:00,
2013-03-02 07:37:00,66.3,58.1,30.20,SSE,161,5.0,13.0,75,0.00,,,0.00,Wunderground v.1.15,2013-03-02 17:37:00,
2013-03-02 07:43:00,66.5,58.3,30.20,ESE,123,5.0,13.0,75,0.00,,,0.00,Wunderground v.1.15,2013-03-02 17:43:00,
2013-03-02 07:48:00,66.5,58.3,30.20,SE,128,6.0,13.0,75,0.00,,,0.00,Wunderground v.1.15,2013-03-02 17:48:00,
2013-03-02 07:54:00,66.7,58.5,30.20,SE,142,6.0,12.0,75,0.00,,,0.00,Wunderground v.1.15,2013-03-02 17:54:00,
2013-03-02 08:00:00,66.9,58.7,30.20,SSE,152,7.0,12.0,75,0.00,,,0.00,Wunderground v.1.15,2013-03-02 18:00:00,
2013-03-02 08:05:00,67.0,58.8,30.21,ESE,110,6.0,14.0,75,0.00,,,0.00,Wunderground v.1.15,2013-03-02 18:05:00,
2013-03-02 08:10:00,67.1,58.5,30.21,SSE,147,6.0,14.0,74,0.00,,,0.00,Wunderground v.1.15,2013-03-02 18:10:00,
2013-03-02 08:16:00,67.4,58.8,30.21,ESE,123,6.0,16.0,74,0.00,,,0.00,Wunderground v.1.15,2013-03-02 18:16:00,
2013-03-02 08:22:00,67.6,58.6,30.21,SE,143,6.0,16.0,73,0.00,,,0.00,Wunderground v.1.15,2013-03-02 18:22:00,
2013-03-02 08:28:00,67.9,58.9,30.21,SSE,150,5.0,16.0,73,0.00,,,0.00,Wunderground v.1.15,2013-03-02 18:28:00,
2013-03-02 08:33:00,68.0,59.4,30.21,East,86,4.0,16.0,74,0.00,,,0.00,Wunderground v.1.15,2013-03-02 18:33:00,
2013-03-02 08:39:00,68.1,60.2,30.22,SE,132,4.0,16.0,76,0.00,,,0.00,Wunderground v.1.15,2013-03-02 18:39:00,
2013-03-02 08:44:00,68.2,60.7,30.22,SE,134,4.0,13.0,77,0.00,,,0.00,Wunderground v.1.15,2013-03-02 18:44:00,
2013-03-02 08:49:00,68.3,60.8,30.22,SE,143,4.0,18.0,77,0.00,,,0.00,Wunderground v.1.15,2013-03-02 18:49:00,
2013-03-02 08:55:00,68.5,60.6,30.22,ESE,113,7.0,15.0,76,0.00,,,0.00,Wunderground v.1.15,2013-03-02 18:55:00,
2013-03-02 09:01:00,68.7,60.8,30.22,SE,142,7.0,9.0,76,0.00,,,0.00,Wunderground v.1.15,2013-03-02 19:01:00,
2013-03-02 09:06:00,68.9,61.0,30.22,NE,54,6.0,18.0,76,0.00,,,0.00,Wunderground v.1.15,2013-03-02 19:06:00,
2013-03-02 09:12:00,69.1,61.2,30.22,ENE,72,5.0,18.0,76,0.00,,,0.00,Wunderground v.1.15,2013-03-02 19:12:00,
2013-03-02 09:18:00,69.2,60.9,30.23,SSE,147,5.0,18.0,75,0.00,,,0.00,Wunderground v.1.15,2013-03-02 19:18:00,
2013-03-02 09:24:00,69.3,61.0,30.22,SE,146,6.0,15.0,75,0.00,,,0.00,Wunderground v.1.15,2013-03-02 19:24:00,
2013-03-02 09:30:00,69.7,61.0,30.22,ESE,105,8.0,15.0,74,0.00,,,0.00,Wunderground v.1.15,2013-03-02 19:30:00,
2013-03-02 09:36:00,69.8,61.1,30.23,SE,134,8.0,25.0,74,0.00,,,0.00,Wunderground v.1.15,2013-03-02 19:36:00,
2013-03-02 09:41:00,69.9,61.2,30.22,ENE,57,6.0,25.0,74,0.00,,,0.00,Wunderground v.1.15,2013-03-02 19:41:00,
2013-03-02 09:47:00,70.0,61.3,30.23,SSE,154,6.0,25.0,74,0.00,,,0.00,Wunderground v.1.15,2013-03-02 19:47:00,
2013-03-02 09:53:00,70.0,60.6,30.23,ENE,78,6.0,18.0,72,0.00,,,0.00,Wunderground v.1.15,2013-03-02 19:53:00,
2013-03-02 09:58:00,70.2,61.1,30.23,ESE,104,7.0,18.0,73,0.00,,,0.00,Wunderground v.1.15,2013-03-02 19:58:00,
2013-03-02 10:03:00,70.2,61.1,30.23,East,92,6.0,18.0,73,0.00,,,0.00,Wunderground v.1.15,2013-03-02 20:03:00,
2013-03-02 10:09:00,70.3,61.2,30.23,SE,136,6.0,18.0,73,0.00,,,0.00,Wunderground v.1.15,2013-03-02 20:09:00,
2013-03-02 10:14:00,70.4,60.9,30.23,SSE,156,7.0,18.0,72,0.00,,,0.00,Wunderground v.1.15,2013-03-02 20:14:00,
2013-03-02 10:20:00,70.5,61.0,30.23,ESE,115,8.0,8.0,72,0.00,,,0.00,Wunderground v.1.15,2013-03-02 20:20:00,
2013-03-02 10:26:00,70.5,61.4,30.23,SE,146,6.0,24.0,73,0.00,,,0.00,Wunderground v.1.15,2013-03-02 20:26:00,
2013-03-02 10:31:00,70.5,61.0,30.23,ESE,115,6.0,24.0,72,0.00,,,0.00,Wunderground v.1.15,2013-03-02 20:31:00,
2013-03-02 10:37:00,70.8,60.9,30.23,ESE,113,7.0,24.0,71,0.00,,,0.00,Wunderground v.1.15,2013-03-02 20:37:00,
2013-03-02 10:43:00,71.0,60.7,30.23,ESE,108,8.0,17.0,70,0.00,,,0.00,Wunderground v.1.15,2013-03-02 20:43:00,
2013-03-02 10:49:00,71.0,60.3,30.23,East,89,7.0,22.0,69,0.00,,,0.00,Wunderground v.1.15,2013-03-02 20:49:00,
2013-03-02 10:54:00,70.9,60.2,30.23,ENE,72,7.0,22.0,69,0.00,,,0.00,Wunderground v.1.15,2013-03-02 20:54:00,
2013-03-02 11:00:00,70.9,60.6,30.22,ENE,63,6.0,6.0,70,0.00,,,0.00,Wunderground v.1.15,2013-03-02 21:00:00,
2013-03-02 11:05:00,70.8,59.3,30.22,East,94,7.0,22.0,67,0.00,,,0.00,Wunderground v.1.15,2013-03-02 21:05:00,
2013-03-02 11:10:00,70.9,59.8,30.22,SSE,150,7.0,18.0,68,0.00,,,0.00,Wunderground v.1.15,2013-03-02 21:10:00,
2013-03-02 11:16:00,71.3,61.0,30.22,ESE,113,7.0,23.0,70,0.00,,,0.00,Wunderground v.1.15,2013-03-02 21:16:00,
2013-03-02 11:22:00,71.7,60.2,30.22,SSE,150,6.0,23.0,67,0.00,,,0.00,Wunderground v.1.15,2013-03-02 21:22:00,
2013-03-02 11:28:00,71.9,60.8,30.21,ESE,111,7.0,23.0,68,0.00,,,0.00,Wunderground v.1.15,2013-03-02 21:28:00,
2013-03-02 11:33:00,72.4,60.8,30.21,SE,132,8.0,23.0,67,0.00,,,0.00,Wunderground v.1.15,2013-03-02 21:33:00,
2013-03-02 11:39:00,73.4,61.8,30.21,East,89,7.0,23.0,67,0.00,,,0.00,Wunderground v.1.15,2013-03-02 21:39:00,
2013-03-02 11:45:00,73.7,60.8,30.21,ENE,78,7.0,18.0,64,0.00,,,0.00,Wunderground v.1.15,2013-03-02 21:45:00,
2013-03-02 11:50:00,73.1,60.6,30.21,East,91,7.0,17.0,65,0.00,,,0.00,Wunderground v.1.15,2013-03-02 21:50:00,
2013-03-02 11:56:00,72.6,60.6,30.21,East,96,7.0,17.0,66,0.00,,,0.00,Wunderground v.1.15,2013-03-02 21:56:00,
2013-03-02 12:02:00,72.4,60.8,30.21,SSE,149,7.0,25.0,67,0.00,,,0.00,Wunderground v.1.15,2013-03-02 22:02:00,
2013-03-02 12:08:00,72.4,60.0,30.20,SE,134,8.0,25.0,65,0.00,,,0.00,Wunderground v.1.15,2013-03-02 22:08:00,
2013-03-02 12:13:00,72.2,60.2,30.20,SSE,155,8.0,25.0,66,0.00,,,0.00,Wunderground v.1.15,2013-03-02 22:13:00,
2013-03-02 12:19:00,72.4,60.4,30.20,East,92,7.0,25.0,66,0.00,,,0.00,Wunderground v.1.15,2013-03-02 22:19:00,
2013-03-02 12:24:00,72.3,60.7,30.20,ESE,121,6.0,17.0,67,0.00,,,0.00,Wunderground v.1.15,2013-03-02 22:24:00,
2013-03-02 12:30:00,72.4,60.4,30.19,ESE,111,6.0,6.0,66,0.00,,,0.00,Wunderground v.1.15,2013-03-02 22:30:00,
2013-03-02 12:36:00,72.5,60.5,30.19,ESE,105,6.0,15.0,66,0.00,,,0.00,Wunderground v.1.15,2013-03-02 22:36:00,
2013-03-02 12:42:00,72.4,60.0,30.19,East,96,6.0,15.0,65,0.00,,,0.00,Wunderground v.1.15,2013-03-02 22:42:00,
2013-03-02 12:47:00,72.0,60.4,30.19,ESE,110,6.0,15.0,67,0.00,,,0.00,Wunderground v.1.15,2013-03-02 22:47:00,
2013-03-02 12:53:00,71.5,61.2,30.19,ESE,111,6.0,14.0,70,0.00,,,0.00,Wunderground v.1.15,2013-03-02 22:53:00,
2013-03-02 12:59:00,71.2,62.1,30.19,ESE,106,5.0,14.0,73,0.00,,,0.00,Wunderground v.1.15,2013-03-02 22:59:00,
2013-03-02 13:05:00,71.1,62.4,30.18,SE,145,5.0,15.0,74,0.00,,,0.00,Wunderground v.1.15,2013-03-02 23:05:00,
2013-03-02 13:10:00,71.2,62.1,30.18,SSE,163,6.0,15.0,73,0.00,,,0.00,Wunderground v.1.15,2013-03-02 23:10:00,
2013-03-02 13:16:00,73.0,62.2,30.17,SSE,150,9.0,18.0,69,0.00,,,0.00,Wunderground v.1.15,2013-03-02 23:16:00,
2013-03-02 13:22:00,75.1,62.1,30.17,SE,128,9.0,23.0,64,0.00,,,0.00,Wunderground v.1.15,2013-03-02 23:22:00,
2013-03-02 13:28:00,75.5,60.6,30.17,ESE,123,7.0,23.0,60,0.00,,,0.00,Wunderground v.1.15,2013-03-02 23:28:00,
2013-03-02 13:33:00,75.4,59.6,30.16,SSE,150,7.0,23.0,58,0.00,,,0.00,Wunderground v.1.15,2013-03-02 23:33:00,
2013-03-02 13:38:00,74.2,60.3,30.17,SSE,151,9.0,23.0,62,0.00,,,0.00,Wunderground v.1.15,2013-03-02 23:38:00,
2013-03-02 13:44:00,73.5,60.6,30.17,ENE,76,8.0,21.0,64,0.00,,,0.00,Wunderground v.1.15,2013-03-02 23:44:00,
2013-03-02 13:50:00,73.0,61.0,30.16,ESE,123,7.0,22.0,66,0.00,,,0.00,Wunderground v.1.15,2013-03-02 23:50:00,
2013-03-02 13:55:00,73.4,61.8,30.16,East,82,6.0,22.0,67,0.00,,,0.00,Wunderground v.1.15,2013-03-02 23:55:00,
2013-03-02 14:01:00,73.7,60.3,30.16,SE,128,5.0,22.0,63,0.00,,,0.00,Wunderground v.1.15,2013-03-03 00:01:00,
2013-03-02 14:06:00,73.4,60.5,30.16,East,96,6.0,22.0,64,0.00,,,0.00,Wunderground v.1.15,2013-03-03 00:06:00,
2013-03-02 14:12:00,72.8,60.3,30.16,NE,46,7.0,15.0,65,0.00,,,0.00,Wunderground v.1.15,2013-03-03 00:12:00,
2013-03-02 14:18:00,72.1,60.5,30.16,East,98,7.0,22.0,67,0.00,,,0.00,Wunderground v.1.15,2013-03-03 00:18:00,
2013-03-02 14:23:00,71.9,60.3,30.16,SE,133,6.0,22.0,67,0.00,,,0.00,Wunderground v.1.15,2013-03-03 00:23:00,
2013-03-02 14:29:00,72.0,60.4,30.16,ENE,71,6.0,22.0,67,0.00,,,0.00,Wunderground v.1.15,2013-03-03 00:29:00,
2013-03-02 14:35:00,72.6,61.4,30.15,ESE,123,6.0,14.0,68,0.00,,,0.00,Wunderground v.1.15,2013-03-03 00:35:00,
2013-03-02 14:40:00,73.1,61.9,30.15,ESE,115,6.0,6.0,68,0.00,,,0.00,Wunderground v.1.15,2013-03-03 00:40:00,
2013-03-02 14:46:00,72.8,61.6,30.15,East,87,7.0,19.0,68,0.00,,,0.00,Wunderground v.1.15,2013-03-03 00:46:00,
2013-03-02 14:51:00,72.5,61.3,30.14,East,91,7.0,21.0,68,0.00,,,0.00,Wunderground v.1.15,2013-03-03 00:51:00,
2013-03-02 14:57:00,72.6,63.4,30.15,East,90,6.0,21.0,73,0.00,,,0.00,Wunderground v.1.15,2013-03-03 00:57:00,
2013-03-02 15:03:00,72.1,63.0,30.15,ESE,113,5.0,15.0,73,0.00,,,0.00,Wunderground v.1.15,2013-03-03 01:03:00,
2013-03-02 15:09:00,71.8,63.4,30.15,East,93,5.0,15.0,75,0.00,,,0.00,Wunderground v.1.15,2013-03-03 01:09:00,
2013-03-02 15:14:00,71.5,62.8,30.14,ENE,69,5.0,15.0,74,0.00,,,0.00,Wunderground v.1.15,2013-03-03 01:14:00,
2013-03-02 15:20:00,71.7,63.7,30.14,East,92,5.0,13.0,76,0.00,,,0.00,Wunderground v.1.15,2013-03-03 01:20:00,
2013-03-02 15:26:00,71.8,63.8,30.15,East,81,4.0,13.0,76,0.00,,,0.00,Wunderground v.1.15,2013-03-03 01:26:00,
2013-03-02 15:31:00,72.3,62.4,30.15,SSE,152,4.0,13.0,71,0.00,,,0.00,Wunderground v.1.15,2013-03-03 01:31:00,
2013-03-02 15:36:00,73.4,61.3,30.15,SSE,158,5.0,13.0,66,0.00,,,0.00,Wunderground v.1.15,2013-03-03 01:36:00,
2013-03-02 15:42:00,74.1,61.6,30.15,East,80,5.0,12.0,65,0.00,,,0.00,Wunderground v.1.15,2013-03-03 01:42:00,
2013-03-02 15:48:00,74.0,61.5,30.14,East,80,6.0,18.0,65,0.00,,,0.00,Wunderground v.1.15,2013-03-03 01:48:00,
2013-03-02 15:53:00,74.0,59.7,30.14,East,84,6.0,18.0,61,0.00,,,0.00,Wunderground v.1.15,2013-03-03 01:53:00,
2013-03-02 15:59:00,73.4,59.6,30.14,East,80,6.0,18.0,62,0.00,,,0.00,Wunderground v.1.15,2013-03-03 01:59:00,
2013-03-02 16:04:00,73.1,59.8,30.14,SE,128,6.0,18.0,63,0.00,,,0.00,Wunderground v.1.15,2013-03-03 02:04:00,
2013-03-02 16:10:00,72.6,59.7,30.14,ENE,67,5.0,15.0,64,0.00,,,0.00,Wunderground v.1.15,2013-03-03 02:10:00,
2013-03-02 16:15:00,72.5,60.5,30.14,SE,136,5.0,15.0,66,0.00,,,0.00,Wunderground v.1.15,2013-03-03 02:15:00,
2013-03-02 16:21:00,72.3,59.4,30.14,ENE,76,5.0,13.0,64,0.00,,,0.00,Wunderground v.1.15,2013-03-03 02:21:00,
2013-03-02 16:26:00,72.3,60.3,30.14,East,96,5.0,13.0,66,0.00,,,0.00,Wunderground v.1.15,2013-03-03 02:26:00,
2013-03-02 16:32:00,72.2,61.0,30.15,ENE,75,4.0,13.0,68,0.00,,,0.00,Wunderground v.1.15,2013-03-03 02:32:00,
2013-03-02 16:38:00,71.9,61.2,30.15,ENE,62,5.0,13.0,69,0.00,,,0.00,Wunderground v.1.15,2013-03-03 02:38:00,
2013-03-02 16:43:00,71.7,61.4,30.15,ENE,60,5.0,13.0,70,0.00,,,0.00,Wunderground v.1.15,2013-03-03 02:43:00,
2013-03-02 16:49:00,71.7,61.8,30.15,SE,128,4.0,13.0,71,0.00,,,0.00,Wunderground v.1.15,2013-03-03 02:49:00,
2013-03-02 16:55:00,71.9,62.0,30.15,ESE,119,4.0,13.0,71,0.00,,,0.00,Wunderground v.1.15,2013-03-03 02:55:00,
2013-03-02 17:00:00,72.1,61.8,30.15,ENE,67,4.0,4.0,70,0.00,,,0.00,Wunderground v.1.15,2013-03-03 03:00:00,
2013-03-02 17:06:00,72.0,62.1,30.15,East,80,4.0,16.0,71,0.00,,,0.00,Wunderground v.1.15,2013-03-03 03:06:00,
2013-03-02 17:11:00,71.5,62.0,30.16,East,84,3.0,16.0,72,0.00,,,0.00,Wunderground v.1.15,2013-03-03 03:11:00,
2013-03-02 17:17:00,71.0,62.3,30.16,East,85,3.0,16.0,74,0.00,,,0.00,Wunderground v.1.15,2013-03-03 03:17:00,
2013-03-02 17:23:00,70.8,62.5,30.16,ESE,105,4.0,11.0,75,0.00,,,0.00,Wunderground v.1.15,2013-03-03 03:23:00,
2013-03-02 17:28:00,70.6,62.3,30.16,East,93,5.0,11.0,75,0.00,,,0.00,Wunderground v.1.15,2013-03-03 03:28:00,
2013-03-02 17:33:00,70.5,62.2,30.16,East,95,3.0,14.0,75,0.00,,,0.00,Wunderground v.1.15,2013-03-03 03:33:00,
2013-03-02 17:38:00,70.2,62.3,30.16,East,97,3.0,14.0,76,0.00,,,0.00,Wunderground v.1.15,2013-03-03 03:38:00,
2013-03-02 17:44:00,69.8,61.9,30.16,East,80,3.0,14.0,76,0.00,,,0.00,Wunderground v.1.15,2013-03-03 03:44:00,
2013-03-02 17:50:00,69.7,62.2,30.17,SE,138,2.0,8.0,77,0.00,,,0.00,Wunderground v.1.15,2013-03-03 03:50:00,
2013-03-02 17:55:00,69.6,62.1,30.17,East,84,3.0,8.0,77,0.00,,,0.00,Wunderground v.1.15,2013-03-03 03:55:00,
2013-03-02 18:01:00,69.6,62.4,30.17,East,90,2.0,9.0,78,0.00,,,0.00,Wunderground v.1.15,2013-03-03 04:01:00,
2013-03-02 18:07:00,69.6,62.4,30.17,East,92,1.0,9.0,78,0.00,,,0.00,Wunderground v.1.15,2013-03-03 04:07:00,
2013-03-02 18:12:00,69.4,61.5,30.18,East,86,2.0,9.0,76,0.00,,,0.00,Wunderground v.1.15,2013-03-03 04:12:00,
2013-03-02 18:18:00,69.4,61.5,30.18,East,84,2.0,12.0,76,0.00,,,0.00,Wunderground v.1.15,2013-03-03 04:18:00,
2013-03-02 18:24:00,69.2,60.9,30.18,ENE,73,2.0,12.0,75,0.00,,,0.00,Wunderground v.1.15,2013-03-03 04:24:00,
2013-03-02 18:29:00,69.2,61.3,30.19,East,81,2.0,12.0,76,0.00,,,0.00,Wunderground v.1.15,2013-03-03 04:29:00,
2013-03-02 18:35:00,69.1,61.6,30.19,East,82,1.0,11.0,77,0.00,,,0.00,Wunderground v.1.15,2013-03-03 04:35:00,
2013-03-02 18:41:00,69.0,61.5,30.19,SE,146,1.0,2.0,77,0.00,,,0.00,Wunderground v.1.15,2013-03-03 04:41:00,
2013-03-02 18:46:00,68.9,61.4,30.19,SE,146,1.0,11.0,77,0.00,,,0.00,Wunderground v.1.15,2013-03-03 04:46:00,
2013-03-02 18:52:00,68.8,61.3,30.20,ESE,117,1.0,8.0,77,0.00,,,0.00,Wunderground v.1.15,2013-03-03 04:52:00,
2013-03-02 18:57:00,68.8,61.7,30.20,ESE,113,1.0,8.0,78,0.00,,,0.00,Wunderground v.1.15,2013-03-03 04:57:00,
2013-03-02 19:00:00,68.7,61.6,30.20,East,84,2.0,8.0,78,0.00,,,0.00,Wunderground v.1.15,2013-03-03 05:00:00,
2013-03-02 19:01:00,68.7,61.6,30.20,East,94,2.0,8.0,78,0.00,,,0.00,Wunderground v.1.15,2013-03-03 05:01:00,
2013-03-02 19:02:00,68.7,61.6,30.20,ESE,105,2.0,8.0,78,0.00,,,0.00,Wunderground v.1.15,2013-03-03 05:02:00,
2013-03-02 19:05:00,68.7,61.6,30.20,ESE,111,2.0,8.0,78,0.00,,,0.00,Wunderground v.1.15,2013-03-03 05:05:00,
2013-03-02 19:10:00,68.6,61.8,30.20,ESE,110,2.0,2.0,79,0.00,,,0.00,Wunderground v.1.15,2013-03-03 05:10:00,
2013-03-02 19:16:00,68.5,61.4,30.21,SE,124,1.0,8.0,78,0.00,,,0.00,Wunderground v.1.15,2013-03-03 05:16:00,
2013-03-02 19:22:00,68.5,61.7,30.21,ESE,105,0.0,8.0,79,0.00,,,0.00,Wunderground v.1.15,2013-03-03 05:22:00,
2013-03-02 19:27:00,68.3,61.2,30.21,ESE,109,0.0,8.0,78,0.00,,,0.00,Wunderground v.1.15,2013-03-03 05:27:00,
2013-03-02 19:33:00,68.0,60.9,30.21,SE,140,2.0,9.0,78,0.00,,,0.00,Wunderground v.1.15,2013-03-03 05:33:00,
2013-03-02 19:39:00,67.7,60.6,30.22,SE,140,3.0,9.0,78,0.00,,,0.00,Wunderground v.1.15,2013-03-03 05:39:00,
2013-03-02 19:44:00,67.6,60.5,30.22,SE,140,1.0,9.0,78,0.00,,,0.00,Wunderground v.1.15,2013-03-03 05:44:00,
2013-03-02 19:50:00,67.3,60.6,30.22,SE,138,2.0,7.0,79,0.00,,,0.00,Wunderground v.1.15,2013-03-03 05:50:00,
2013-03-02 19:55:00,67.2,60.5,30.22,SE,138,4.0,7.0,79,0.00,,,0.00,Wunderground v.1.15,2013-03-03 05:55:00,
2013-03-02 20:01:00,67.1,60.4,30.22,SE,136,3.0,8.0,79,0.00,,,0.00,Wunderground v.1.15,2013-03-03 06:01:00,
2013-03-02 20:07:00,67.0,60.3,30.22,SE,140,3.0,8.0,79,0.00,,,0.00,Wunderground v.1.15,2013-03-03 06:07:00,
2013-03-02 20:13:00,66.9,60.2,30.23,SE,146,3.0,8.0,79,0.00,,,0.00,Wunderground v.1.15,2013-03-03 06:13:00,
2013-03-02 20:19:00,66.8,60.1,30.23,SE,146,2.0,9.0,79,0.00,,,0.00,Wunderground v.1.15,2013-03-03 06:19:00,
2013-03-02 20:24:00,66.7,60.0,30.23,SE,146,3.0,9.0,79,0.00,,,0.00,Wunderground v.1.15,2013-03-03 06:24:00,
2013-03-02 20:30:00,66.6,59.9,30.23,SE,146,2.0,2.0,79,0.00,,,0.00,Wunderground v.1.15,2013-03-03 06:30:00,
2013-03-02 20:36:00,66.5,60.1,30.23,SSE,147,2.0,7.0,80,0.00,,,0.00,Wunderground v.1.15,2013-03-03 06:36:00,
2013-03-02 20:41:00,66.3,59.9,30.23,SSE,155,2.0,7.0,80,0.00,,,0.00,Wunderground v.1.15,2013-03-03 06:41:00,
2013-03-02 20:47:00,66.2,59.8,30.24,SSE,155,1.0,7.0,80,0.00,,,0.00,Wunderground v.1.15,2013-03-03 06:47:00,
2013-03-02 20:53:00,66.2,60.2,30.23,SSE,155,1.0,7.0,81,0.00,,,0.00,Wunderground v.1.15,2013-03-03 06:53:00,
2013-03-02 20:58:00,66.2,60.2,30.24,SSE,155,1.0,7.0,81,0.00,,,0.00,Wunderground v.1.15,2013-03-03 06:58:00,
2013-03-02 21:03:00,66.2,59.8,30.24,SE,142,2.0,10.0,80,0.00,,,0.00,Wunderground v.1.15,2013-03-03 07:03:00,
2013-03-02 21:09:00,66.1,59.7,30.24,SE,142,3.0,10.0,80,0.00,,,0.00,Wunderground v.1.15,2013-03-03 07:09:00,
2013-03-02 21:14:00,66.0,59.7,30.24,SE,142,2.0,10.0,80,0.00,,,0.00,Wunderground v.1.15,2013-03-03 07:14:00,
2013-03-02 21:20:00,65.9,59.6,30.24,SE,142,1.0,6.0,80,0.00,,,0.00,Wunderground v.1.15,2013-03-03 07:20:00,
2013-03-02 21:25:00,65.7,59.0,30.24,SE,144,1.0,6.0,79,0.00,,,0.00,Wunderground v.1.15,2013-03-03 07:25:00,
2013-03-02 21:31:00,65.5,58.5,30.24,SE,144,1.0,4.0,78,0.00,,,0.00,Wunderground v.1.15,2013-03-03 07:31:00,
2013-03-02 21:37:00,65.2,57.8,30.24,SSE,147,2.0,7.0,77,0.00,,,0.00,Wunderground v.1.15,2013-03-03 07:37:00,
2013-03-02 21:42:00,65.0,57.6,30.24,SSE,147,2.0,7.0,77,0.00,,,0.00,Wunderground v.1.15,2013-03-03 07:42:00,
2013-03-02 21:48:00,64.8,57.4,30.24,SSE,147,2.0,7.0,77,0.00,,,0.00,Wunderground v.1.15,2013-03-03 07:48:00,
2013-03-02 21:53:00,64.7,57.0,30.24,SSE,156,2.0,7.0,76,0.00,,,0.00,Wunderground v.1.15,2013-03-03 07:53:00,
2013-03-02 21:59:00,64.8,56.7,30.25,SSE,163,3.0,7.0,75,0.00,,,0.00,Wunderground v.1.15,2013-03-03 07:59:00,
2013-03-02 22:04:00,65.0,56.9,30.25,SSE,156,3.0,11.0,75,0.00,,,0.00,Wunderground v.1.15,2013-03-03 08:04:00,
2013-03-02 22:10:00,65.3,57.5,30.25,SSE,163,3.0,11.0,76,0.00,,,0.00,Wunderground v.1.15,2013-03-03 08:10:00,
2013-03-02 22:15:00,65.6,57.8,30.25,SSE,162,3.0,11.0,76,0.00,,,0.00,Wunderground v.1.15,2013-03-03 08:15:00,
2013-03-02 22:21:00,65.9,58.1,30.25,SSE,148,3.0,4.0,76,0.00,,,0.00,Wunderground v.1.15,2013-03-03 08:21:00,
2013-03-02 22:26:00,66.1,58.3,30.25,SSE,152,3.0,9.0,76,0.00,,,0.00,Wunderground v.1.15,2013-03-03 08:26:00,
2013-03-02 22:32:00,66.3,58.5,30.25,SE,138,3.0,9.0,76,0.00,,,0.00,Wunderground v.1.15,2013-03-03 08:32:00,
2013-03-02 22:38:00,66.5,58.7,30.25,SE,142,3.0,9.0,76,0.00,,,0.00,Wunderground v.1.15,2013-03-03 08:38:00,
2013-03-02 22:44:00,66.8,59.4,30.25,SSE,155,5.0,10.0,77,0.00,,,0.00,Wunderground v.1.15,2013-03-03 08:44:00,
2013-03-02 22:49:00,66.9,59.5,30.25,SSE,150,6.0,14.0,77,0.00,,,0.00,Wunderground v.1.15,2013-03-03 08:49:00,
2013-03-02 22:55:00,66.9,59.8,30.25,SSE,167,5.0,14.0,78,0.00,,,0.00,Wunderground v.1.15,2013-03-03 08:55:00,
2013-03-02 23:00:00,66.8,59.7,30.25,SSE,167,2.0,14.0,78,0.00,,,0.00,Wunderground v.1.15,2013-03-03 09:00:00,
2013-03-02 23:05:00,66.8,59.7,30.26,SSE,167,2.0,14.0,78,0.00,,,0.00,Wunderground v.1.15,2013-03-03 09:05:00,
2013-03-02 23:11:00,66.7,60.0,30.25,SSE,167,2.0,13.0,79,0.00,,,0.00,Wunderground v.1.15,2013-03-03 09:11:00,
2013-03-02 23:17:00,66.6,59.9,30.25,SSE,167,1.0,13.0,79,0.00,,,0.00,Wunderground v.1.15,2013-03-03 09:17:00,
2013-03-02 23:23:00,66.6,59.9,30.25,SSE,167,0.0,6.0,79,0.00,,,0.00,Wunderground v.1.15,2013-03-03 09:23:00,
2013-03-02 23:29:00,66.5,60.1,30.25,SSE,167,0.0,6.0,80,0.00,,,0.00,Wunderground v.1.15,2013-03-03 09:29:00,
2013-03-02 23:34:00,66.5,60.1,30.24,SSE,167,0.0,6.0,80,0.00,,,0.00,Wunderground v.1.15,2013-03-03 09:34:00,
2013-03-02 23:40:00,66.4,60.4,30.24,SSE,167,1.0,2.0,81,0.00,,,0.00,Wunderground v.1.15,2013-03-03 09:40:00,
2013-03-02 23:45:00,66.3,59.9,30.24,SSE,150,1.0,7.0,80,0.00,,,0.00,Wunderground v.1.15,2013-03-03 09:45:00,
2013-03-02 23:51:00,66.1,59.4,30.24,SE,146,3.0,9.0,79,0.00,,,0.00,Wunderground v.1.15,2013-03-03 09:51:00,
2013-03-02 23:56:00,66.1,59.4,30.24,SE,142,5.0,9.0,79,0.00,,,0.00,Wunderground v.1.15,2013-03-03 09:56:00,